Location: Quedlinburg
(51.7921°N, 11.1414°E)
Time: 08:07:41
(UTC+02:00)

SO-50 - Pass Details

Date: 08 March 2026
Orbit: 567 x 673 km, 64.6° (Epoch: 13 April)

Event Time Altitude Azimuth Distance (km) Brightness Sun altitude
Rises 20:33:49 0° 214° (SW) 2,927 ? -22.9°
Reaches altitude 10° 20:36:04 10° 213° (SSW) 2,038 ? -23.3°
Enters shadow 20:40:02 62° 184° (S) 741 ? -23.8°
